TimeEST,TemperatureF,Dew PointF,Humidity,Sea Level PressureIn,VisibilityMPH,Wind Direction,Wind SpeedMPH,Gust SpeedMPH,PrecipitationIn,Events,Conditions,WindDirDegrees,DateUTC
12:02 AM,30.2,23.0,75,29.64,10.0,NW,19.6,46.0,0.00,Snow,Light Snow,310,2012-12-28 05:02:00
12:16 AM,28.4,23.0,80,29.64,10.0,NW,34.5,50.6,0.00,Snow,Light Snow,310,2012-12-28 05:16:00
12:31 AM,28.4,21.2,74,29.65,10.0,NW,16.1,48.3,0.00,Snow,Light Snow,310,2012-12-28 05:31:00
12:51 AM,29.1,22.1,75,29.67,10.0,NW,17.3,43.7,0.00,Snow,Light Snow,310,2012-12-28 05:51:00
1:02 AM,28.4,21.2,74,29.67,10.0,NW,19.6,51.8,0.00,Snow,Light Snow,310,2012-12-28 06:02:00
1:15 AM,28.4,21.2,74,29.67,10.0,NW,29.9,44.9,0.00,Snow,Light Snow,320,2012-12-28 06:15:00
1:29 AM,28.4,21.2,74,29.68,10.0,NNW,19.6,44.9,0.00,Snow,Light Snow,330,2012-12-28 06:29:00
1:51 AM,28.0,21.0,75,29.73,10.0,NW,13.8,43.7,0.00,Snow,Light Snow,310,2012-12-28 06:51:00
2:01 AM,28.4,21.2,74,29.71,10.0,NW,24.2,46.0,0.00,Snow,Light Snow,320,2012-12-28 07:01:00
2:21 AM,28.4,21.2,74,29.72,10.0,NW,27.6,46.0,0.00,Snow,Light Snow,320,2012-12-28 07:21:00
2:51 AM,28.0,21.0,75,29.75,10.0,NW,9.2,-,0.00,Snow,Light Snow,310,2012-12-28 07:51:00
3:51 AM,27.1,19.0,72,29.78,10.0,NW,9.2,48.3,0.00,Snow,Light Snow,310,2012-12-28 08:51:00
4:15 AM,26.6,19.4,74,29.77,10.0,NW,11.5,29.9,0.00,Snow,Light Snow,310,2012-12-28 09:15:00
4:23 AM,26.6,17.6,69,29.77,10.0,NNW,15.0,38.0,0.00,Snow,Light Snow,330,2012-12-28 09:23:00
4:51 AM,27.1,18.1,69,29.81,10.0,NW,25.3,40.3,0.00,Snow,Light Snow,320,2012-12-28 09:51:00
5:04 AM,26.6,17.6,69,29.79,10.0,NNW,20.7,61.0,0.00,Snow,Light Snow,330,2012-12-28 10:04:00
5:14 AM,26.6,17.6,69,29.80,10.0,NW,13.8,50.6,0.00,Snow,Light Snow,320,2012-12-28 10:14:00
5:51 AM,26.1,17.1,69,29.83,10.0,NW,23.0,35.7,0.00,Snow,Light Snow,320,2012-12-28 10:51:00
6:51 AM,26.1,17.1,69,29.84,10.0,NNW,11.5,35.7,0.00,Snow,Light Snow,330,2012-12-28 11:51:00
7:51 AM,27.1,16.2,63,29.88,10.0,NW,16.1,29.9,0.00,Snow,Light Snow,320,2012-12-28 12:51:00
8:51 AM,28.0,18.1,66,29.91,10.0,NW,6.9,-,0.00,,Clear,310,2012-12-28 13:51:00
9:51 AM,31.1,20.1,64,29.93,10.0,NW,12.7,-,N/A,,Clear,320,2012-12-28 14:51:00
10:51 AM,32.0,20.1,62,29.92,10.0,NNW,20.7,-,N/A,,Clear,330,2012-12-28 15:51:00
11:51 AM,32.9,21.0,62,29.92,10.0,NNW,18.4,-,N/A,,Clear,330,2012-12-28 16:51:00
12:51 PM,32.9,22.1,65,29.92,10.0,NW,16.1,40.3,N/A,,Mostly Cloudy,320,2012-12-28 17:51:00
1:51 PM,34.0,23.0,64,29.93,10.0,NNW,15.0,-,N/A,,Scattered Clouds,330,2012-12-28 18:51:00
2:51 PM,34.0,22.1,62,29.95,10.0,NW,9.2,-,N/A,,Clear,310,2012-12-28 19:51:00
3:51 PM,32.0,21.0,64,29.95,10.0,NW,10.4,-,N/A,,Clear,320,2012-12-28 20:51:00
4:51 PM,31.1,21.0,66,29.97,10.0,Calm,Calm,-,N/A,,Clear,0,2012-12-28 21:51:00
5:51 PM,27.1,21.0,78,30.00,10.0,Calm,Calm,-,N/A,,Clear,0,2012-12-28 22:51:00
6:51 PM,26.1,21.0,81,30.01,10.0,Calm,Calm,-,N/A,,Clear,0,2012-12-28 23:51:00
7:51 PM,25.2,20.1,81,30.01,10.0,Calm,Calm,-,N/A,,Clear,0,2012-12-29 00:51:00
8:51 PM,25.2,21.0,84,30.01,10.0,Calm,Calm,-,N/A,,Clear,0,2012-12-29 01:51:00
9:51 PM,28.0,22.1,78,30.01,10.0,Calm,Calm,-,N/A,,Mostly Cloudy,0,2012-12-29 02:51:00
11:51 PM,23.0,20.1,89,30.02,10.0,Calm,Calm,-,N/A,,Clear,0,2012-12-29 04:51:00